www.pogodaiklimat.ru

Погода и климат >> Архив погоды >> Алжир >> Иллизи


ПОГОДА в Иллизи

  • Прогноз погоды в Иллизи
  • Монитор погоды в Иллизи

АРХИВ ПОГОДЫ в Иллизи

Время (UTC), дата Ветер
(напр.,м/с)
 
Видим.   Явления Облачность Т
(С)
Тd
(С)
f
(%)
Тe
(С)
Тes
(С)
Комфортность P
(гПа)
Po
(гПа)
Тmin
(С)
Tmax
(С)
R
(мм)
R24
(мм)
S
(см)
12 15.05 З 2 10 км ясно +30.0 -0.8 14 +27 +48 жарко 1011.0 950.9
15 15.05 З 2 10 км ясно +32.0 -0.7 12 +29 +38 жарко 1009.2 949.5
18 15.05 С 4 10 км ясно +30.4 -3.9 11 +27 +27 жарко 1009.2 949.2 +32.4
21 15.05 СВ 3 10 км ясно +25.0 -3.4 15 +23 +23 комфорт 1010.0 948.9
00 16.05 В 2 10 км ясно +21.2 -1.5 22 +21 +21 комфорт 1009.3 947.5
03 16.05 Ю 2 10 км ясно +17.1 -2.9 25 +17 +17 1009.1 946.5
06 16.05 З 2 10 км ясно +16.6 -3.5 25 +17 +19 1010.6 947.8 +16.0
09 16.05 СВ 2 10 км ясно +28.0 -1.5 14 +25 +40 комфорт 1011.1 950.6
12 16.05 СЗ 3 10 км ясно +32.5 -0.2 12 +29 +47 жарко 1011.2 951.5
15 16.05 С 6 10 км ясно +34.0 -0.8 11 +30 +34 жарко 1014.6 955.0
18 16.05 С 5 10 км ясно +32.5 -4.4 9 +29 +29 жарко 1009.2 949.6 +34.8
21 16.05 З 2 10 км ясно +24.6 +3.4 25 +24 +24 комфорт 1010.9 949.7
00 17.05 ЮВ 2 10 км ясно +22.2 +1.8 26 +22 +22 комфорт 1009.8 948.2
03 17.05 Ю 5 10 км ясно +21.0 +0.9 26 +21 +21 комфорт 1008.5 946.7
06 17.05 Ю 3 10 км ясно +22.0 +1.5 26 +22 +23 комфорт 1009.4 947.8 +20.4
09 17.05 Ю 6 10 км ясно +34.0 +1.2 13 +31 +38 жарко 1008.9 949.6
12 17.05 ЮЗ 5 10 км ясно +38.5 +2.6 11 +35 +46 очень
жарко
1006.7 948.4
15 17.05 СЗ 6 10 км ясно +39.1 +0.5 9 +35 +39 очень
жарко
1004.7 946.6
18 17.05 СВ 3 10 км ясно +38.0 -0.3 9 +34 +34 очень
жарко
1004.0 945.8 +40.0
21 17.05 ЮВ 3 10 км ясно +30.3 +4.8 20 +28 +28 жарко 1004.5 944.8
00 18.05 ЮВ 4 10 км ясно +27.1 +3.9 23 +26 +26 жарко 1003.5 943.2
03 18.05 ЮВ 4 10 км ясно +25.0 +3.0 24 +24 +24 комфорт 1001.8 941.2
06 18.05 Ю 4 10 км 4/3 1380 м
[Cu med, cong Ac trans]
+26.6 -0.6 17 +25 +25 комфорт 1001.9 941.6 +24.5
09 18.05 ЮЗ 9 6000 м 3/0 2000 м
[Ac trans]
+40.6 +1.6 9 +37 +38 очень
жарко
1001.5 943.9
12 18.05 ЮЗ 8 6000 м 5/0 2000 м
[Ac trans]
+42.5 +37 +41 очень
жарко
1000.9 943.7
15 18.05 З 7 6000 м 5/0 2000 м
[Ac trans]
+43.0 +38 +40 очень
жарко
999.4 942.3
18 18.05 СЗ 7 6000 м 3/0 2000 м
[Ac trans]
+39.0 +34 +34 очень
жарко
1001.6 943.7 +45.0
21 18.05 С 5 6000 м 3/0 2000 м
[Ac trans]
+32.0 +27 +27 жарко 1003.8 944.5
00 19.05 З 5 6000 м ясно +26.8 -3.7 13 +24 +24 комфорт 1004.8 944.4
03 19.05 З 2 6000 м ясно +22.5 +0.2 23 +22 +22 комфорт 1005.4 944.1
06 19.05 Ю 1 6000 м ясно +22.0 +0.9 25 +22 +24 комфорт 1007.2 945.7 +21.0
09 19.05 В 3 8000 м 3/0
[Ci sp]
+32.6 +6.6 20 +31 +43 жарко 1006.6 947.2
12 19.05 В 3 8000 м 5/0
[Ci sp]
+38.2 +5.7 14 +36 +51 опасность
солнечного
удара
1004.5 946.3
15 19.05 В 3 8000 м 5/0
[Ci sp]
+40.9 +5.0 11 +38 +45 очень
жарко
1001.3 943.7
18 19.05 СВ 9 6000 м пыльный позёмок 8/0 2000 м
[Ac trans Ci sp]
+38.5 -0.0 9 +35 +35 очень
жарко
1001.8 943.8 +42.0
21 19.05 С 6 6000 м 8/0 2000 м
[Ac trans Ci sp]
+34.8 -2.7 9 +31 +31 жарко 1003.5 944.7
00 20.05 С 5 6000 м 8/0 2000 м
[Ac trans Ci sp]
+33.5 -3.7 9 +30 +30 жарко 1003.0 944.0
03 20.05 В 3 6000 м 8/0 2000 м
[Ac trans Ci sp]
+30.1 -6.2 9 +26 +26 жарко 1002.4 942.8
06 20.05 ЮВ 3 8000 м 4/0 2000 м
[Ac trans Ci sp]
+28.1 -4.4 12 +25 +26 комфорт 1004.1 944.0 +27.6
09 20.05 ЮВ 4 8000 м 5/0 2000 м
[Ac trans Ci sp]
+35.3 +6.7 17 +33 +41 жарко 1004.2 945.5
12 20.05 З 8 6000 м 6/0 2000 м
[Ac trans Ci sp]
+39.4 +1.3 9 +36 +39 очень
жарко
1004.4 946.4
15 20.05 СЗ 9 3000 м пыльный позёмок 6/0 2000 м
[Ac trans Ci sp]
+39.2 +1.7 10 +36 +36 очень
жарко
1003.5 945.5
18 20.05 СВ 10 2500 м пыльный позёмок 8/3 1380 м
[Cu med, cong Ac trans Ci sp]
+36.3 +1.8 12 +33 +33 жарко 1004.9 946.3 +40.4
21 20.05 СВ 9 3000 м пыльный позёмок 6/0 2000 м
[Ac trans Ci sp]
+33.1 +3.6 16 +30 +30 жарко 1006.6 947.3
00 21.05 СВ 3 5000 м 6/0 2000 м
[Ac trans Ci sp]
+30.4 +1.2 15 +28 +28 жарко 1006.4 946.6
03 21.05 В 2 5000 м 6/0 2000 м
[Ac trans Ci sp]
+29.0 +0.6 16 +27 +27 жарко 1005.5 945.5
06 21.05 СЗ 2 2500 м пыль 6/0 2000 м
[Ac trans Ci sp]
+25.0 +6.3 30 +25 +26 комфорт 1007.4 946.5 +24.5
09 21.05 В 5 3000 м пыль 6/0 2000 м
[Ac trans Ci sp]
+32.0 +7.2 21 +30 +37 жарко 1006.7 947.2
12 21.05 СВ 4 3000 м пыль 5/0 2000 м
[Ac trans Ci sp]
+37.5 +8.0 17 +36 +47 очень
жарко
1004.3 946.0
15 21.05 С 4 4000 м пыль 6/0 2000 м
[Ac trans Ci sp]
+39.1 +3.5 11 +36 +40 очень
жарко
1001.9 944.0
18 21.05 С 5 4000 м пыль 10/4 1200 м
[Cu med, cong Ac trans]
+37.3 +2.5 11 +34 +34 очень
жарко
1002.2 943.9 +39.5
21 21.05 ЮВ 5 2500 м пыль 10/4 1200 м
[Cu med, cong Ac trans]
+33.9 +8.7 21 +32 +32 жарко 1004.3 945.3
00 22.05 СВ 8 1500 м пыльный позёмок 5/1 1200 м
[Cu med, cong Ac trans]
+29.0 +6.9 25 +28 +28 жарко 1005.9 945.9
03 22.05 СВ 6 2000 м пыль 4/0 2000 м
[Ac trans]
+26.0 +4.9 26 +25 +25 комфорт 1007.1 946.4
06 22.05 СВ 5 2000 м пыль 1/0 2000 м
[Ac trans]
+23.8 +6.0 32 +24 +25 комфорт 1008.8 947.6 +22.0
09 22.05 СВ 2 2000 м пыль 1/0 2000 м
[Ac trans]
+28.1 +7.1 27 +27 +42 жарко 1010.1 949.6

 

Местоположение метеостанции Иллизи (Алжир): широта 26.50 долгота 8.42 высота над уровнем моря 544 м.

В архиве по умолчанию представлена погода в Иллизи за последнюю неделю. Архивные данные за месяц целиком и за предыдущие месяцы, начиная с января 2011 года, Вы можете получить, выбрав интересующий диапазон дат из раскрывающегося списка и нажав кнопку "Ввод!".


*Определитесь, кто Вы:
робот инопланетянин человек

Внимание! Время в таблицах - всемирное. Для получения местного времени необходимо прибавить поправку, которая равна 1 ч.

Смотрите также архив погоды в соседних городах и на ближайших метеорологических станциях:

Погода в Fadnoune (Алжир) (79 км)
Погода в Bordj Haous (Алжир) (186 км)
Погода в Ин-Аменасе (Алжир) (210 км)
Погода в Tin Fouye (Алжир) (231 км)
Погода в Djanet (Алжир) (270 км)
Погода в Tinalkoum (Алжир) (278 км)
Погода в Mertouek (Алжир) (383 км)
Погода в Роуд-Ноусс (Алжир) (396 км)
Погода в Гадамесе (Ливия) (417 км)
Погода в Moulay Lachen (Алжир) (425 км)

Пояснения к столбцам:

Ветер - указаны скорость ветра в м/с - средняя за 10 мин, порывы в срок и между сроками (в фигурных скобках) и направление, откуда дует ветер: С - северный, СВ - северо-восточный, В - восточный, ЮВ - юго-восточный, Ю - южный, ЮЗ - юго-западный, З - западный, СЗ - северо-западный.
Видимость - горизонтальная дальность видимости в метрах или километрах. При видимости от 1 до 10 км при отсутствии осадков обычно наблюдается дымка, при ухудшении видимости до 1 км и менее - туман. В сухую погоду видимость может ухудшаться дымом, пылью или мглою.
Явления - указаны атмосферные явления, наблюдавшиеся в срок или в последний час перед сроком; фигурными скобками обозначены явления, наблюдавшиеся между сроками (за 1-3 часа до срока); квадратными скобками обозначены град или гололедные отложения с указанием их диаметра в мм.
Облачность - указаны через наклонную черту общая и нижняя облачность в баллах и высота нижней границы облаков в метрах; квадратными скобками обозначены формы облаков: Ci - перистые, Cs - перисто-слоистые, Cc - перисто-кучевые, Ac - высококучевые, As - высокослоистые, Sc - слоисто-кучевые, Ns - слоисто-дождевые, Cu - кучевые, Cb - кучево-дождевые. Подробнее классификацию облаков см. в Атласе облаков (PDF).
T - Температура воздуха - температура, измеренная на высоте 2 м над землей.
Td - Температура точки росы - температура, при понижении до которой содержащийся в воздухе водяной пар достигнет насыщения.
f - Относительная влажность воздуха - влажноcть воздуха, измеренная на высоте 2 м над землей.
Te - Эффективная температура - температура, которую ощущает одетый по сезону человек в тени. Характеристика душности погоды. При расчете учитывается влияние влажности воздуха и скорости ветра на теплоощущения человека.
Tes - Эффективная температура на солнце - температура, которую ощущает человек, с поправкой на солнечный нагрев. Характеристика знойности погоды. Зависит от высоты солнца над горизонтом, облачности и скорости ветра. Ночью, в пасмурную погоду, а также при ветре 12 м/с и более поправка равна нулю.
P - Атмосферное давление - приведенное к уровню моря атмосферное давление.
Po - Атмосферное давление - измеренное на уровне метеостанции атмосферное давление.
Tmin - Минимальная температура - минимум температуры воздуха на высоте 2 м над землей.
Tmax - Максимальная температура - максимум температуры воздуха на высоте 2 м над землей.
R - Количество осадков - Количество выпавших осадков за период времени, мм. При наведении курсора мыши на число - период времени, за который выпало указанное количество осадков.
R24 - Количество осадков - Количество выпавших осадков за 24 часа, мм.
S - Снежный покров - Высота снежного покрова, см. При наведении курсора мыши на число - состояние снежного покрова и степень покрытия местности в баллах.